Onde está Templo de Diana en Portugal?

Templo de Diana está situado na região Evora em Portugal!

Buscar o nome de uma cidade:

Templemartin, Temple Hill, Temple Peak, Tempel 1, Tempurredjo

Aqui você vai encontrar a localização de Templo de Diana em um mapa.
Para ver como ele atualmente parece, abaixo estão algumas fotos da região, com webcams online.
Você também pode encontrar a distância para as principais cidades da região e de cidades do resto do Portugal.

Todos os lugares do mundo chamado .

new

Onde está Templo de Diana no mapa?


Webcams perto Templo de Diana

Comporta: Distrito de - Praia do Carvalhal.


Comporta: Distrito de - Praia do Carvalhal - Dia
Actual
Comporta: Distrito de - Praia do Carvalhal - Actual

Benavente > North-East: AIrport, METAR: BENAV 180005Z 36004KT 17/14 Q1015.


Benavente > North-East: AIrport, METAR: BENAV 180005Z 36004KT 17/14 Q1015 - Dia
Actual
Benavente > North-East: AIrport, METAR: BENAV 180005Z 36004KT 17/14 Q1015 - Actual

Abrantes > South-West: Centro Cidade.


Abrantes > South-West: Centro Cidade - Dia
Actual
Abrantes > South-West: Centro Cidade - Actual

Webcams provided by webcams.travel

Distâncias

Onde está Templo de Diana em relação a outros lugares?

Top 10 cidades em Evora e distância de Templo de Diana.

Cidade#Populaçãokmmilhas
Évora14585121
Montemor-o-Novo2128542717
Vendas Novas3112485031
Estremoz493494226
Reguengos de Monsaraz572173723
Redondo658453220
Vila Viçosa754844830
Borba845864729
Adaval9-2616
Agua d' Alte10-3220

Top 10 cidades em Portugal e distância de Templo de Diana.

Cidade # Populaçãokmmilhas
Lisbon151779810867
Porto2249630293182
Amadora317885611773
Braga4121393335208
Setúbal51171098754
Coimbra6106580187116
Queluz710339811974
Funchal8980411046650
Vila Nova de Gaia970810291181
Loures106623011370